Regional Weather Roundup
Issued by NWS

Home | Current Version | Previous Version | Graphics & Text | Print | Product List | Glossary On
Versions: 1 2 3 4 5 6 7 8 9 10 11 12 13 14 15 16 17 18 19 20 21 22 23 24 25 26 27 28 29 30 31 32 33 34 35 36 37 38 39 40 41 42 43 44 45 46 47 48 49 50
000
ASUS44 KMEG 240710
RWRTN
TENNESSEE HOURLY STATE WEATHER ROUNDUP
NATIONAL WEATHER SERVICE MEMPHIS TN
100 AM CST FRI FEB 24 2017

TNZ002-004-019-021-049-052-054-088>092-240800-
WEST TENNESSEE

CITY           SKY/WX    TMP DP  RH WIND       PRES   REMARKS
MEMPHIS INTL   CLEAR     64  59  83 S12       29.68R
NWS MEMPHIS      N/A     64 N/A N/A MISG        N/A
JACKSON        CLEAR     64  58  80 S10       29.70R
UNION CITY     CLEAR     63  63 100 S13       29.64F
PARIS          CLEAR     61  54  77 S14       29.69F
HUNTINGDON     CLEAR     64  57  77 S15       29.69S
$$

TNZ008-025-027-028-033-062-065-066-240800-
NORTH MIDDLE TENNESSEE

CITY           SKY/WX    TMP DP  RH WIND       PRES   REMARKS
NASHVILLE      PTCLDY    63  55  75 S8        29.76S
PORTLAND       CLEAR     61  55  82 S13       29.75R
CLARKSVILLE    CLEAR     65  55  70 S17       29.71S
SMYRNA         PTCLDY    62  55  77 S7        29.77S
COOKEVILLE     PTCLDY    59  52  77 S5        29.79R
GALLATIN       CLEAR     63  55  77 S6        29.79R
CROSSVILLE     CLEAR     61  49  64 S13G20    29.83F
$$

TNZ061-075-076-078-094-096-097-240800-
SOUTH MIDDLE TENNESSEE

CITY           SKY/WX    TMP DP  RH WIND       PRES   REMARKS
FAYETTEVILLE   CLEAR     61  55  82 S9        29.80S
TULLAHOMA      CLEAR     61  54  77 S7        29.81S
WINCHESTER     CLEAR     63  54  72 S7        29.82R
MCMINNVILLE    CLEAR     64  55  72 S5        29.80S
COLUMBIA       CLEAR     64  64 100 S10       29.75S
SHELBYVILLE    CLEAR     63  55  77 S9        29.80R
$$

TNZ017-018-042-046-047-240800-
NORTHEAST TENNESSEE

CITY           SKY/WX    TMP DP  RH WIND       PRES   REMARKS
TRI CITIES     PTCLDY    51  48  89 CALM      29.88
ELIZABETHTON   PTCLDY    50  48  93 CALM      29.88S
$$

TNZ012-013-036-069-073-074-240800-
CENTRAL EAST TENNESSEE

CITY           SKY/WX    TMP DP  RH WIND       PRES   REMARKS
KNOXVILLE      PTCLDY    56  51  84 CALM      29.83
OAK RIDGE      PTCLDY    54  51  90 CALM      29.85S
GATLINBURG     CLEAR     48  48 100 CALM      29.84S
MORRISTOWN     CLEAR     59  52  77 CALM      29.84S
JACKSBORO      MOCLDY    52  50  93 CALM      29.86R
$$

TNZ083-085-099-240800-
SOUTHEAST TENNESSEE

CITY           SKY/WX    TMP DP  RH WIND       PRES   REMARKS
CHATTANOOGA    CLEAR     53  50  89 CALM      29.84S
$$

SKY/WX REPORTED AS FAIR MEANS FEW OR NO CLOUDS BELOW
12 THOUSAND FEET.




USA.gov is the U.S. government's official web portal to all federal, state and local government web resources and services.